Location: Oulou
(10.7667°N, 12.5167°W)
Time: 13:25:31
(UTC+00:00)

Lacrosse 5 - Pass Details

Date: 20 September 2019
Orbit: 715 x 724 km, 57.0° (Epoch: 16 October)

Event Time Altitude Azimuth Distance (km) Brightness Sun altitude
Rises 19:47:59 0° 197° (SSW) 3,113 5.3 -15.6°
Reaches altitude 10° 19:50:28 10° 191° (S) 2,192 4.4 -16.2°
Maximum altitude 19:55:15 44° 119° (ESE) 987 2.1 -17.4°
Enters shadow 19:57:13 30° 69° (ENE) 1,274 2.6 -17.9°
